USA 61

导读

USA 61是美国于1990年6月8日09:00发射的USA系列军用卫星,该系列卫星是美国保密军事航天项目的典型代表。作为美国冷战后期航天部署的组成部分,USA 61承担着机密军事任务,其具体载荷与工作细节并未公开,依托美国本土发射场送入预定轨道,服务于美国空间态势感知或早期预警类军事需求,是美国构建天基军事资产网络的一颗重要节点卫星。

基本信息
目录编号:
20691
目录名称:
USA 61
国际标识:
1990-050C
轨道中心:
EARTH
卫星名称:
USA 61
卫星全名:
--
卫星状态:
在轨 (已飞行13158 天)
发射日期:
1990-06-08 UTC
国别 :
美国 (US)
星等 :
--
轨道信息
数据来源 国际轨道数据 AOE轨道数据
星历时间 2026-06-17T03:38:10+0800
17小时前
查看轨道信息
2026-06-17T03:00:00+0800
18小时前
查看轨道信息
半长轴 7403.72km 7403.751km
偏心率 0.088041 0.08806
轨道倾角 63.292° 63.292°
近地点辐角 85.162° 85.138°
升交点赤经 212.807° 212.878°
平近点角 284.925° 154.905°
近地点 373.752km 373.639km
远地点 1677.414km 1677.589km
周期 105.666分钟 105.667分钟
每日圈数 13.627864 13.62778
详细信息
使用方式:
暂无
2D轨道图
3D轨道图
轨道高度分析图
轨道倾角分析图
轨道综合分析图
查看轨道综合分析图